Simultaneous Nadir Overpasses (SNOs) Predictions

Prediction of SNOs between LANDSAT-8 and METOP-B Satellite Orbit:

Table of predicted SNOs for the next 14.0 days since TLE Epoch: 3/27/2015
Index Date (LANDSAT-8) Time (LANDSAT-8) Lat,Lon (LANDSAT-8) SZA (LANDSAT-8 ) Date (METOP-B) Time (METOP-B) Lat,Lon (METOP-B) SZA (METOP-B ) Distance(km) Time Diff (sec)
1 03/29/2015 10:17:49 -81.05,-116.19 100.49 03/29/2015 10:17:46 -81.05,-116.07 100.48 1.98 3
2 03/29/2015 11:07:15 81.06, 51.52 79.51 03/29/2015 11:08:26 81.06, 51.44 79.53 1.36 71
3 04/01/2015 05:02:36 81.02, 142.11 78.38 04/01/2015 05:01:31 81.02, 142.07 78.35 0.79 65
4 04/01/2015 05:52:01 -81.04, -49.94 101.59 04/01/2015 05:52:09 -81.05, -49.78 101.56 2.98 8
5 04/04/2015 00:36:47 81.02,-151.44 77.32 04/04/2015 00:35:53 81.02,-151.37 77.31 1.24 54
6 04/04/2015 01:26:13 -81.04, 16.52 102.64 04/04/2015 01:26:33 -81.04, 16.45 102.64 1.25 20
7 04/06/2015 20:10:59 81.01, -85.13 76.26 04/06/2015 20:10:17 81.01, -85.24 76.23 1.99 42
8 04/06/2015 21:00:24 -81.06, 83.20 103.66 04/06/2015 21:00:55 -81.06, 83.35 103.62 2.64 31
9 04/09/2015 15:45:09 81.04, -18.25 75.29 04/09/2015 15:44:38 81.04, -18.08 75.30 3.03 31




NCC Satellite Simultaneous Nadir Overpasses (SNOs) Prediction Service
